This is the latest recevied weather packets stored in our database for station/object KC3UTO. If no packets are shown the sender has not sent any weather packets the latest 10 day(s).
| Time | Temp. | Humidity | Pressure | Rain* | Wind** | Luminosity | Snow |
|---|---|---|---|---|---|---|---|
| 1777072414 | 21.67° C | 34% | 1007.3 hPa | 0 mm | - | 17 W/m² | - |
| 1777072108 | 22.22° C | 33% | 1007.5 hPa | 0 mm | - | 19 W/m² | - |
| 1777071805 | 22.22° C | 38% | 1007.1 hPa | 0 mm | - | 26 W/m² | - |
| 1777071501 | 22.78° C | 33% | 1007.2 hPa | 0 mm | - | 35 W/m² | - |
| 1777071201 | 22.78° C | 34% | 1007 hPa | 0 mm | - | 31 W/m² | - |
| 1777070897 | 22.78° C | 33% | 1007 hPa | 0 mm | - | 43 W/m² | - |
| 1777070595 | 22.78° C | 33% | 1006.9 hPa | 0 mm | - | 58 W/m² | - |
| 1777070289 | 22.78° C | 33% | 1006.6 hPa | 0 mm | - | 65 W/m² | - |
| 1777069983 | 22.78° C | 31% | 1006.9 hPa | 0 mm | - | 72 W/m² | - |
| 1777069683 | 23.33° C | 33% | 1007 hPa | 0 mm | - | 77 W/m² | - |
| 1777069378 | 23.33° C | 31% | 1007 hPa | 0 mm | - | 89 W/m² | - |
| 1777069076 | 23.33° C | 37% | 1006.9 hPa | 0 mm | - | 141 W/m² | - |
| 1777068771 | 23.33° C | 30% | 1007 hPa | 0 mm | - | 106 W/m² | - |
| 1777068467 | 23.33° C | 31% | 1007 hPa | 0 mm | - | 86 W/m² | - |
| 1777068166 | 23.33° C | 31% | 1006.9 hPa | 0 mm | - | 95 W/m² | - |
| 1777067861 | 23.33° C | 31% | 1006.9 hPa | 0 mm | - | 110 W/m² | - |
| 1777067560 | 23.33° C | 30% | 1007 hPa | 0 mm | - | 131 W/m² | - |
| 1777067258 | 23.89° C | 30% | 1006.9 hPa | 0 mm | - | 128 W/m² | - |
| 1777066955 | 23.89° C | 30% | 1006.9 hPa | 0 mm | - | 119 W/m² | - |
| 1777066650 | 23.89° C | 30% | 1007.2 hPa | 0 mm | - | 115 W/m² | - |
| 1777066347 | 23.89° C | 30% | 1007.2 hPa | 0 mm | - | 140 W/m² | - |
| 1777066041 | 24.44° C | 30% | 1006.9 hPa | 0 mm | - | 136 W/m² | - |
| 1777065736 | 24.44° C | 29% | 1007 hPa | 0 mm | - | 163 W/m² | - |
| 1777065432 | 24.44° C | 28% | 1006.8 hPa | 0 mm | - | 170 W/m² | - |
| 1777065126 | 24.44° C | 28% | 1006.8 hPa | 0 mm | - | 217 W/m² | - |
* Rain latest hour (hover to see other rain measurements)
** Current wind speed in m/s (hover to see current wind gust speed)